SVR1111 UUBW-UWPS

Flight info

Callsign SVR1111
Flight time 1h 12m
Altitude 31000
Route TOGMO2B TOGMO M56 ABAGI T662 PILEN PILEN2K
Aircraft A320/M-SDFGJ1IYRW/LB1

Departure

Time 2026-04-27 17:55
Airport Zhukovsky International Airport (UUBW)

Arrival

Time 2026-04-27 19:07
Airport Saransk International Airport (UWPS)
Time Latitude Longitude Altitude Speed Heading
2026-04-27 17:16 55.56346 38.12046 398 ft 0 kts 221°
2026-04-27 17:41 55.56349 38.12050 399 ft 2 kts 220°
2026-04-27 17:42 55.56362 38.12068 394 ft 2 kts 218°
2026-04-27 17:42 55.56375 38.12084 399 ft 2 kts 209°
2026-04-27 17:42 55.56390 38.12097 394 ft 2 kts 194°
2026-04-27 17:42 55.56406 38.12101 397 ft 2 kts 167°
2026-04-27 17:43 55.56422 38.12090 397 ft 2 kts 136°
2026-04-27 17:43 55.56428 38.12078 398 ft 1 kts 128°
2026-04-27 17:43 55.56428 38.12077 398 ft 0 kts 128°
2026-04-27 17:46 55.56417 38.12100 394 ft 8 kts 134°
2026-04-27 17:47 55.56386 38.12160 397 ft 8 kts 131°
2026-04-27 17:47 55.56363 38.12208 397 ft 7 kts 131°
2026-04-27 17:47 55.56312 38.12309 398 ft 19 kts 131°
2026-04-27 17:47 55.56223 38.12483 397 ft 16 kts 131°
2026-04-27 17:48 55.56158 38.12604 399 ft 12 kts 135°
2026-04-27 17:48 55.56112 38.12692 398 ft 8 kts 125°
2026-04-27 17:48 55.56095 38.12756 393 ft 4 kts 112°
2026-04-27 17:48 55.56088 38.12787 395 ft 0 kts 112°
2026-04-27 17:49 55.56087 38.12792 396 ft 3 kts 112°
2026-04-27 17:49 55.56065 38.12862 395 ft 6 kts 128°
2026-04-27 17:49 55.56047 38.12900 399 ft 5 kts 131°
2026-04-27 17:49 55.55960 38.13074 399 ft 28 kts 131°
2026-04-27 17:50 55.55828 38.13328 399 ft 28 kts 132°
2026-04-27 17:50 55.55625 38.13742 398 ft 26 kts 131°
2026-04-27 17:50 55.55466 38.14056 394 ft 25 kts 131°
2026-04-27 17:51 55.55350 38.14285 398 ft 25 kts 131°
2026-04-27 17:51 55.55238 38.14506 399 ft 24 kts 132°
2026-04-27 17:51 55.55131 38.14721 397 ft 23 kts 131°
2026-04-27 17:51 55.55032 38.14919 396 ft 20 kts 130°
2026-04-27 17:52 55.54949 38.15083 396 ft 16 kts 132°
2026-04-27 17:52 55.54897 38.15212 395 ft 9 kts 103°
2026-04-27 17:52 55.54910 38.15284 397 ft 4 kts 50°
2026-04-27 17:52 55.54925 38.15308 399 ft 7 kts 43°
2026-04-27 17:53 55.55031 38.15464 398 ft 13 kts 20°
2026-04-27 17:53 55.55066 38.15433 396 ft 0 kts 313°
2026-04-27 17:54 55.55082 38.15398 394 ft 22 kts 308°
2026-04-27 17:54 55.55393 38.14749 399 ft 112 kts 311°
2026-04-27 17:54 55.56060 38.13431 638 ft 159 kts 309°
2026-04-27 17:55 55.56833 38.11999 1650 ft 163 kts 307°
2026-04-27 17:55 55.57583 38.10589 1884 ft 152 kts 304°
2026-04-27 17:55 55.58240 38.09282 1925 ft 134 kts 303°
2026-04-27 17:55 55.58813 38.08056 1813 ft 127 kts 292°
2026-04-27 17:56 55.58895 38.06415 1965 ft 150 kts 257°
2026-04-27 17:56 55.58264 38.04765 2460 ft 177 kts 240°
2026-04-27 17:56 55.57438 38.02924 2767 ft 206 kts 243°
2026-04-27 17:56 55.56511 38.00778 3338 ft 228 kts 243°
2026-04-27 17:57 55.55511 37.98531 4232 ft 238 kts 243°
2026-04-27 17:57 55.54343 37.96339 5095 ft 259 kts 229°
2026-04-27 17:57 55.52704 37.94688 5937 ft 283 kts 208°
2026-04-27 17:57 55.50708 37.94008 6853 ft 298 kts 194°
2026-04-27 17:58 55.48647 37.93583 7710 ft 299 kts 195°
2026-04-27 17:58 55.46598 37.93124 7883 ft 294 kts 195°
2026-04-27 17:58 55.44568 37.92643 8027 ft 294 kts 196°
2026-04-27 17:58 55.42548 37.92137 8048 ft 292 kts 197°
2026-04-27 17:59 55.40543 37.91597 8085 ft 293 kts 197°
2026-04-27 17:59 55.38489 37.91464 8017 ft 300 kts 181°
2026-04-27 17:59 55.36432 37.92228 8760 ft 308 kts 171°
2026-04-27 17:59 55.34358 37.93199 9632 ft 311 kts 172°
2026-04-27 18:00 55.32255 37.94138 9929 ft 311 kts 173°
2026-04-27 18:00 55.30148 37.95048 10070 ft 311 kts 173°
2026-04-27 18:00 55.28024 37.95939 10643 ft 314 kts 173°
2026-04-27 18:00 55.25897 37.96853 11582 ft 316 kts 172°
2026-04-27 18:01 55.23722 37.97698 12324 ft 320 kts 179°
2026-04-27 18:01 55.21519 37.97679 13154 ft 315 kts 194°
2026-04-27 18:01 55.19410 37.96736 13890 ft 311 kts 207°
2026-04-27 18:01 55.17397 37.95387 14572 ft 315 kts 207°
2026-04-27 18:02 55.15332 37.94034 15296 ft 320 kts 206°
2026-04-27 18:02 55.13118 37.93228 15993 ft 334 kts 187°
2026-04-27 18:02 55.10772 37.93653 16685 ft 345 kts 168°
2026-04-27 18:02 55.08466 37.95288 17083 ft 365 kts 149°
2026-04-27 18:03 55.06496 37.98189 17611 ft 376 kts 134°
2026-04-27 18:03 55.04703 38.01464 18167 ft 380 kts 134°
2026-04-27 18:03 55.02843 38.04840 18365 ft 382 kts 134°
2026-04-27 18:03 55.01021 38.08121 18401 ft 382 kts 135°
2026-04-27 18:04 54.99169 38.11440 18412 ft 381 kts 135°
2026-04-27 18:04 54.97318 38.14753 18413 ft 381 kts 135°
2026-04-27 18:04 54.95466 38.18060 18421 ft 381 kts 135°
2026-04-27 18:04 54.93617 38.21362 18417 ft 381 kts 135°
2026-04-27 18:05 54.91765 38.24669 18425 ft 381 kts 135°
2026-04-27 18:05 54.89915 38.27965 18423 ft 381 kts 135°
2026-04-27 18:05 54.88059 38.31260 18430 ft 381 kts 135°
2026-04-27 18:05 54.86205 38.34565 18433 ft 382 kts 133°
2026-04-27 18:06 54.84573 38.38208 18457 ft 384 kts 122°
2026-04-27 18:06 54.83264 38.42265 19037 ft 387 kts 118°
2026-04-27 18:06 54.81961 38.46361 19718 ft 389 kts 119°
2026-04-27 18:06 54.80625 38.50473 20273 ft 392 kts 119°
2026-04-27 18:07 54.79275 38.54591 20427 ft 393 kts 120°
2026-04-27 18:07 54.78440 38.57136 20443 ft 392 kts 120°
2026-04-27 18:07 54.78395 38.57273 20439 ft 392 kts 121°
2026-04-27 18:07 54.78349 38.57408 20437 ft 392 kts 123°
2026-04-27 18:08 54.76848 38.60975 19014 ft 420 kts 133°
2026-04-27 18:08 54.74854 38.64519 19033 ft 403 kts 140°
2026-04-27 18:08 54.72606 38.67461 19251 ft 409 kts 150°
2026-04-27 18:08 54.70174 38.70105 19821 ft 414 kts 150°
2026-04-27 18:09 54.67710 38.72722 20432 ft 417 kts 151°
2026-04-27 18:09 54.65216 38.75323 21034 ft 420 kts 151°
2026-04-27 18:09 54.62696 38.77920 21604 ft 424 kts 151°
2026-04-27 18:09 54.60153 38.80534 22171 ft 427 kts 151°
2026-04-27 18:10 54.57594 38.83171 22725 ft 430 kts 151°
2026-04-27 18:10 54.55011 38.85841 23221 ft 434 kts 151°
2026-04-27 18:10 54.52409 38.88531 23667 ft 437 kts 151°
2026-04-27 18:10 54.49824 38.91204 24090 ft 440 kts 151°
2026-04-27 18:11 54.47188 38.93925 24491 ft 442 kts 151°
2026-04-27 18:11 54.44543 38.96657 24915 ft 445 kts 150°
2026-04-27 18:11 54.41982 38.99706 25333 ft 450 kts 142°
2026-04-27 18:11 54.39719 39.03436 25730 ft 454 kts 132°
2026-04-27 18:12 54.37833 39.07808 26119 ft 457 kts 121°
2026-04-27 18:12 54.36400 39.12678 26503 ft 460 kts 112°
2026-04-27 18:12 54.35192 39.17780 26885 ft 463 kts 112°
2026-04-27 18:12 54.33985 39.22826 27252 ft 465 kts 112°
2026-04-27 18:13 54.32729 39.28027 27624 ft 468 kts 112°
2026-04-27 18:13 54.31471 39.33205 27979 ft 470 kts 112°
2026-04-27 18:13 54.30224 39.38326 28310 ft 473 kts 113°
2026-04-27 18:13 54.28953 39.43540 28636 ft 475 kts 113°
2026-04-27 18:14 54.27676 39.48774 28953 ft 478 kts 113°
2026-04-27 18:14 54.26391 39.54022 29265 ft 480 kts 113°
2026-04-27 18:14 54.25097 39.59305 29569 ft 482 kts 113°
2026-04-27 18:14 54.23795 39.64622 29793 ft 484 kts 113°
2026-04-27 18:15 54.22487 39.69938 30013 ft 486 kts 114°
2026-04-27 18:15 54.21168 39.75275 30240 ft 487 kts 114°
2026-04-27 18:15 54.19847 39.80611 30488 ft 487 kts 114°
2026-04-27 18:15 54.18538 39.85897 30547 ft 479 kts 114°
2026-04-27 18:16 54.15958 39.96275 30560 ft 472 kts 114°
2026-04-27 18:16 54.13391 40.06492 30567 ft 471 kts 114°
2026-04-27 18:17 54.11054 40.17009 30573 ft 472 kts 107°
2026-04-27 18:17 54.09207 40.27737 30572 ft 472 kts 107°
2026-04-27 18:18 54.07362 40.38394 30581 ft 471 kts 107°
2026-04-27 18:18 54.05497 40.49089 30578 ft 471 kts 108°
2026-04-27 18:19 54.03616 40.59779 30582 ft 470 kts 108°
2026-04-27 18:19 54.01721 40.70425 30585 ft 470 kts 108°
2026-04-27 18:20 53.99835 40.81005 30589 ft 470 kts 108°
2026-04-27 18:20 53.97934 40.91630 30590 ft 469 kts 108°
2026-04-27 18:21 53.96022 41.02235 30591 ft 469 kts 108°
2026-04-27 18:21 53.94177 41.12881 30599 ft 469 kts 107°
2026-04-27 18:22 53.92469 41.23563 30602 ft 469 kts 106°
2026-04-27 18:22 53.90761 41.34177 30604 ft 469 kts 107°
2026-04-27 18:23 53.88992 41.44828 30609 ft 468 kts 107°
2026-04-27 18:23 53.87201 41.55464 30612 ft 468 kts 107°
2026-04-27 18:24 53.85430 41.66000 30615 ft 468 kts 107°
2026-04-27 18:24 53.83626 41.76651 30620 ft 468 kts 108°
2026-04-27 18:25 53.81831 41.87174 30628 ft 468 kts 108°
2026-04-27 18:25 53.80007 41.97754 30633 ft 467 kts 108°
2026-04-27 18:26 53.78180 42.08327 30639 ft 467 kts 108°
2026-04-27 18:26 53.76358 42.18799 30640 ft 467 kts 108°
2026-04-27 18:27 53.74509 42.29323 30647 ft 466 kts 108°
2026-04-27 18:27 53.72660 42.39830 30651 ft 466 kts 108°
2026-04-27 18:28 53.70804 42.50336 30650 ft 466 kts 109°
2026-04-27 18:28 53.68946 42.60808 30656 ft 466 kts 106°
2026-04-27 18:29 53.68340 42.71655 30653 ft 470 kts 87°
2026-04-27 18:29 53.69440 42.82523 30652 ft 471 kts 79°
2026-04-27 18:30 53.70701 42.93384 30649 ft 471 kts 80°
2026-04-27 18:30 53.71936 43.04196 30652 ft 471 kts 80°
2026-04-27 18:31 53.73169 43.15076 30653 ft 472 kts 80°
2026-04-27 18:31 53.74394 43.25970 30654 ft 472 kts 80°
2026-04-27 18:32 53.75615 43.36872 30656 ft 472 kts 81°
2026-04-27 18:32 53.76828 43.47795 30652 ft 472 kts 81°
2026-04-27 18:33 53.77428 43.53265 30484 ft 473 kts 81°
2026-04-27 18:33 53.78024 43.58751 30247 ft 473 kts 81°
2026-04-27 18:33 53.78615 43.64224 30016 ft 473 kts 81°
2026-04-27 18:33 53.79206 43.69701 29537 ft 471 kts 81°
2026-04-27 18:34 53.79792 43.75122 28716 ft 468 kts 81°
2026-04-27 18:34 53.80375 43.80516 28003 ft 463 kts 81°
2026-04-27 18:34 53.80945 43.85775 27277 ft 459 kts 81°
2026-04-27 18:34 53.81512 43.91057 26576 ft 454 kts 81°
2026-04-27 18:35 53.82069 43.96306 25863 ft 451 kts 81°
2026-04-27 18:35 53.82615 44.01494 25173 ft 447 kts 80°
2026-04-27 18:35 53.83156 44.06672 24481 ft 444 kts 80°
2026-04-27 18:35 53.83692 44.11798 23842 ft 439 kts 80°
2026-04-27 18:36 53.84223 44.16877 23214 ft 435 kts 80°
2026-04-27 18:36 53.84746 44.21901 22540 ft 430 kts 80°
2026-04-27 18:36 53.85088 44.25197 22167 ft 425 kts 80°
2026-04-27 18:36 53.85592 44.30098 21619 ft 419 kts 80°
2026-04-27 18:37 53.86086 44.34926 21098 ft 414 kts 81°
2026-04-27 18:37 53.86573 44.39704 20603 ft 408 kts 81°
2026-04-27 18:37 53.87053 44.44421 20111 ft 404 kts 81°
2026-04-27 18:37 53.87528 44.49084 19627 ft 400 kts 81°
2026-04-27 18:38 53.87996 44.53700 19147 ft 395 kts 81°
2026-04-27 18:38 53.88456 44.58281 18677 ft 392 kts 81°
2026-04-27 18:38 53.88909 44.62824 18196 ft 388 kts 81°
2026-04-27 18:38 53.89355 44.67332 17677 ft 386 kts 82°
2026-04-27 18:39 53.89797 44.71797 17170 ft 382 kts 82°
2026-04-27 18:39 53.90042 44.76250 16687 ft 377 kts 90°
2026-04-27 18:39 53.90095 44.80669 16187 ft 374 kts 91°
2026-04-27 18:39 53.90146 44.85071 15679 ft 372 kts 91°
2026-04-27 18:40 53.90254 44.89445 15188 ft 371 kts 85°
2026-04-27 18:40 53.90760 44.93734 14675 ft 371 kts 74°
2026-04-27 18:40 53.91715 44.97800 14161 ft 370 kts 62°
2026-04-27 18:40 53.93069 45.01486 13653 ft 369 kts 53°
2026-04-27 18:41 53.94559 45.05036 13102 ft 368 kts 54°
2026-04-27 18:41 53.96010 45.08524 12595 ft 366 kts 54°
2026-04-27 18:41 53.97469 45.12051 12068 ft 363 kts 54°
2026-04-27 18:41 53.98917 45.15566 11539 ft 361 kts 54°
2026-04-27 18:42 54.00356 45.19061 11013 ft 360 kts 54°
2026-04-27 18:42 54.01321 45.21408 10658 ft 359 kts 54°
2026-04-27 18:42 54.03206 45.25997 10180 ft 350 kts 54°
2026-04-27 18:42 54.04605 45.29309 10053 ft 337 kts 50°
2026-04-27 18:43 54.06153 45.32201 9910 ft 325 kts 45°
2026-04-27 18:43 54.07685 45.34974 9653 ft 319 kts 45°
2026-04-27 18:43 54.09197 45.37720 9474 ft 317 kts 45°
2026-04-27 18:43 54.10704 45.40464 9323 ft 317 kts 45°
2026-04-27 18:44 54.12286 45.43132 8783 ft 320 kts 36°
2026-04-27 18:44 54.14089 45.45271 8442 ft 313 kts 30°
2026-04-27 18:44 54.15915 45.47304 7997 ft 311 kts 30°
2026-04-27 18:44 54.17716 45.49316 7290 ft 308 kts 30°
2026-04-27 18:45 54.19481 45.51292 6591 ft 306 kts 30°
2026-04-27 18:45 54.21311 45.53041 5913 ft 296 kts 12°
2026-04-27 18:45 54.23225 45.53455 5646 ft 262 kts 348°
2026-04-27 18:45 54.24932 45.52707 4959 ft 246 kts 323°
2026-04-27 18:46 54.26216 45.51069 4679 ft 216 kts 303°
2026-04-27 18:46 54.27051 45.49139 4551 ft 193 kts 294°
2026-04-27 18:46 54.27779 45.47237 4444 ft 190 kts 294°
2026-04-27 18:46 54.28502 45.45344 4349 ft 189 kts 294°
2026-04-27 18:47 54.29219 45.43451 4249 ft 188 kts 291°
2026-04-27 18:47 54.29509 45.41412 4157 ft 173 kts 257°
2026-04-27 18:47 54.29008 45.39607 3953 ft 171 kts 225°
2026-04-27 18:47 54.28003 45.38486 3690 ft 174 kts 215°
2026-04-27 18:48 54.26978 45.37375 3478 ft 172 kts 216°
2026-04-27 18:48 54.25988 45.36242 3433 ft 168 kts 217°
2026-04-27 18:48 54.25037 45.35159 3351 ft 159 kts 217°
2026-04-27 18:48 54.24131 45.34143 3227 ft 152 kts 216°
2026-04-27 18:49 54.23282 45.33195 3036 ft 144 kts 216°
2026-04-27 18:49 54.22476 45.32300 2841 ft 130 kts 216°
2026-04-27 18:49 54.21763 45.31508 2676 ft 114 kts 216°
2026-04-27 18:49 54.21111 45.30783 2512 ft 109 kts 216°
2026-04-27 18:50 54.20482 45.30083 2358 ft 107 kts 215°
2026-04-27 18:50 54.19863 45.29395 2215 ft 106 kts 216°
2026-04-27 18:50 54.19245 45.28709 2063 ft 106 kts 215°
2026-04-27 18:50 54.18625 45.28022 1916 ft 107 kts 214°
2026-04-27 18:51 54.17999 45.27328 1764 ft 107 kts 214°
2026-04-27 18:51 54.17370 45.26630 1596 ft 109 kts 214°
2026-04-27 18:51 54.16719 45.25909 1437 ft 113 kts 213°
2026-04-27 18:51 54.16048 45.25167 1276 ft 115 kts 212°
2026-04-27 18:52 54.15367 45.24414 1116 ft 118 kts 212°
2026-04-27 18:52 54.14674 45.23644 894 ft 120 kts 211°
2026-04-27 18:52 54.13970 45.22869 737 ft 122 kts 212°
2026-04-27 18:53 54.12661 45.21476 790 ft 106 kts 210°
2026-04-27 18:53 54.11988 45.20751 1491 ft 121 kts 213°
2026-04-27 18:53 54.11230 45.19969 2239 ft 135 kts 213°
2026-04-27 18:53 54.10348 45.19149 2600 ft 154 kts 207°
2026-04-27 18:54 54.09196 45.19116 2935 ft 187 kts 171°
2026-04-27 18:54 54.08089 45.20476 2985 ft 211 kts 136°
2026-04-27 18:54 54.07598 45.22914 2998 ft 232 kts 94°
2026-04-27 18:54 54.08102 45.25564 3005 ft 241 kts 62°
2026-04-27 18:55 54.08953 45.28024 3006 ft 242 kts 59°
2026-04-27 18:55 54.09846 45.30471 2998 ft 242 kts 59°
2026-04-27 18:55 54.10744 45.32911 3002 ft 243 kts 59°
2026-04-27 18:55 54.11639 45.35355 3001 ft 243 kts 59°
2026-04-27 18:56 54.12549 45.37873 3003 ft 260 kts 60°
2026-04-27 18:56 54.13542 45.40651 3008 ft 284 kts 60°
2026-04-27 18:56 54.14573 45.43548 3006 ft 286 kts 60°
2026-04-27 18:56 54.15623 45.46429 3008 ft 287 kts 54°
2026-04-27 18:57 54.17086 45.48606 3011 ft 284 kts 26°
2026-04-27 18:57 54.18824 45.50303 3009 ft 285 kts 29°
2026-04-27 18:57 54.20469 45.52116 3006 ft 281 kts 32°
2026-04-27 18:57 54.22034 45.53936 3002 ft 264 kts 32°
2026-04-27 18:58 54.23539 45.55698 3006 ft 262 kts 31°
2026-04-27 18:58 54.24589 45.56684 3005 ft 257 kts 14°
2026-04-27 18:58 54.26845 45.56725 3005 ft 235 kts 329°
2026-04-27 18:58 54.28140 45.55225 3005 ft 221 kts 307°
2026-04-27 18:59 54.29223 45.53365 3005 ft 220 kts 303°
2026-04-27 18:59 54.30231 45.51412 3001 ft 218 kts 301°
2026-04-27 18:59 54.31120 45.49347 3000 ft 211 kts 288°
2026-04-27 18:59 54.31541 45.47086 2992 ft 187 kts 269°
2026-04-27 19:00 54.31526 45.44980 2998 ft 171 kts 254°
2026-04-27 19:00 54.31173 45.43103 2996 ft 166 kts 240°
2026-04-27 19:00 54.30510 45.41465 3000 ft 166 kts 226°
2026-04-27 19:00 54.29621 45.40245 2996 ft 167 kts 216°
2026-04-27 19:01 54.28683 45.39206 2994 ft 153 kts 216°
2026-04-27 19:01 54.27847 45.38276 3014 ft 134 kts 216°
2026-04-27 19:01 54.27109 45.37453 3001 ft 124 kts 217°
2026-04-27 19:01 54.26365 45.36621 2995 ft 129 kts 216°
2026-04-27 19:02 54.25602 45.35771 2997 ft 130 kts 216°
2026-04-27 19:02 54.24843 45.34926 2998 ft 130 kts 216°
2026-04-27 19:02 54.24083 45.34080 2996 ft 130 kts 216°
2026-04-27 19:02 54.23323 45.33236 2943 ft 130 kts 216°
2026-04-27 19:03 54.22583 45.32414 2831 ft 121 kts 216°
2026-04-27 19:03 54.21917 45.31676 2688 ft 110 kts 216°
2026-04-27 19:03 54.21285 45.30974 2543 ft 107 kts 216°
2026-04-27 19:03 54.20874 45.30517 2451 ft 106 kts 216°
2026-04-27 19:04 54.20052 45.29604 2252 ft 107 kts 216°
2026-04-27 19:04 54.19430 45.28915 2109 ft 106 kts 215°
2026-04-27 19:04 54.18810 45.28227 1951 ft 107 kts 215°
2026-04-27 19:04 54.18186 45.27534 1810 ft 107 kts 214°
2026-04-27 19:05 54.17558 45.26839 1651 ft 109 kts 214°
2026-04-27 19:05 54.16913 45.26124 1481 ft 112 kts 214°
2026-04-27 19:05 54.16250 45.25391 1327 ft 115 kts 212°
2026-04-27 19:05 54.15570 45.24638 1164 ft 118 kts 212°
2026-04-27 19:06 54.14880 45.23875 1005 ft 119 kts 211°
2026-04-27 19:06 54.14188 45.23101 817 ft 121 kts 211°
2026-04-27 19:06 54.13480 45.22327 663 ft 121 kts 210°
2026-04-27 19:06 54.12897 45.21693 641 ft 62 kts 213°
2026-04-27 19:07 54.12769 45.21496 643 ft 7 kts 233°
2026-04-27 19:07 54.12758 45.21524 645 ft 6 kts 65°
2026-04-27 19:07 54.12837 45.21618 643 ft 18 kts 34°
2026-04-27 19:07 54.12987 45.21783 643 ft 42 kts 33°
2026-04-27 19:08 54.13176 45.21964 647 ft 9 kts 338°
2026-04-27 19:08 54.13204 45.21893 649 ft 5 kts 302°
2026-04-27 19:08 54.13216 45.21860 650 ft 1 kts 302°
2026-04-27 19:08 54.13233 45.21814 651 ft 7 kts 302°
2026-04-27 19:09 54.13241 45.21794 651 ft 0 kts 302°
2026-04-27 19:10 54.13289 45.21668 658 ft 21 kts 302°
2026-04-27 19:10 54.13368 45.21542 659 ft 14 kts 13°
2026-04-27 19:10 54.13442 45.21619 659 ft 13 kts 33°
2026-04-27 19:10 54.13506 45.21689 658 ft 18 kts 32°
2026-04-27 19:11 54.13617 45.21818 661 ft 9 kts 40°
2026-04-27 19:11 54.13642 45.21852 657 ft 10 kts 57°
2026-04-27 19:11 54.13623 45.21940 651 ft 0 kts 123°